星链-36237(STARLINK-36237)

导读

STARLINK-36237(NORAD编号68337)是美国太空探索技术公司(SpaceX)星链(Starlink)低轨互联网星座中的一员,属于二代星链(Gen2)卫星组网的组成部分。星链计划旨在构建覆盖全球的低时延高速天基通信网络,该卫星运行于近地轨道,采用Ku/Ka频段提供通信服务,参与为全球用户提供互联网接入服务。 作为SpaceX大规模低轨星座部署的一环,它和其他星链卫星一同承担偏远地区联网、移动场景通信等服务功能,SpaceX在2026年正推进降低包括部分星链卫星轨道高度的计划,以提升轨道安全性,减少太空碎片风险。

Basic Information
目录编号:
68337
目录名称:
STARLINK-36237
国际标识:
2026-059S
轨道中心:
EARTH
卫星名称:
星链-36237
卫星全名:
星链-36237(STARLINK-36237)
卫星状态:
在轨 (已飞行174 天)
发射日期:
2026-03-22 UTC
国别 :
美国 (US)
星等 :
--
This satellite is enrolled in the Space Conjunction Data Service (SCDS) and the current flight risk assessment level is: No High Risk
Orbit Information
数据来源 国际轨道数据
星历时间: 2026-09-11T14:16:00+0800
1天前
查看轨道信息
半长轴: 6840.785km
偏心率: 0.0000999
轨道倾角: 53.158°
近地点辐角 83.356°
升交点赤经 198.745°
平近点角 276.756°
近地点: 461.964km
远地点: 463.332km
周期: 93.847分钟
每日圈数: 15.344187
Detailed Information
固有亮度:
5
最大亮度:
2.5
卫星平台:
Starlink V1.0
覆盖范围:
全球
运营商:
太空探索技术公司
运营商所在国:
美国
制造商(研发单位):
太空探索技术公司
制造商所在国:
美国
使用方式:
暂无
Satellite Introduction
Starlink 计划是 SpaceX 推出的全球卫星互联网项目,通过发射低轨道卫星,为全球尤其是偏远地区提供高速、低延迟的互联网服务。自 2019 年起,Starlink 已部署数千颗卫星,旨在缩小全球数字鸿沟,推动互联网普及。该项目还为军事、航空等行业提供通信支持,带来广泛经济效益。
2D Orbit Map
3D Orbit Map
Orbit Altitude Analysis Chart
Orbit Inclination Analysis Chart
Orbit Comprehensive Analysis Chart
View Comprehensive Chart
Conjunction Data List
Event ID Objects TCA Miss Dist (km) Collision Risk Probability Collision Risk Index (CRI) Action
CDM_260914-113406-152606-833721
2026-09-14T
11:34:15+0000
1.195 km
极远距离
1.260979E-5 中风险 0.57
CDM_260914-055006-029906-833721
2026-09-14T
05:50:16+0000
1.278 km
极远距离
5.023606E-6 低风险 0.49
CDM_260914-100006-152606-833721
2026-09-14T
10:00:28+0000
1.850 km
极远距离
3.090093E-6 低风险 0.45
CDM_260913-231805-234906-833721
2026-09-13T
23:18:45+0000
2.316 km
极远距离
1.690977E-6 低风险 0.4
CDM_260913-165805-315406-833721
2026-09-13T
16:58:39+0000
2.682 km
极远距离
1.374523E-6 低风险 0.38
CDM_260910-132205-015906-833721
2026-09-10T
13:22:22+0000
2.272 km
极远距离
1.286771E-6 低风险 0.37
CDM_260911-011205-180906-833721
2026-09-11T
01:12:27+0000
2.680 km
极远距离
5.00327E-7 极低风险 0.29
Miss Distance Evolution Trend with All Objects
Collision Probability Evolution Trend with All Objects